Regional Weather Roundup
Issued by NWS

Home | Current Version | Previous Version | Text Only | Print | Product List | Glossary On
Versions: 1 2 3 4 5 6 7 8 9 10 11 12 13 14 15 16 17 18 19 20 21 22 23 24 25 26 27 28 29 30 31 32 33 34 35 36 37 38 39 40 41 42 43 44 45 46 47 48 49 50
662
ASUS45 KSLC 071610
RWRUT

UTAH REGIONAL WEATHER ROUNDUP
NATIONAL WEATHER SERVICE SALT LAKE CITY UT
900 AM MST WED DEC 07 2016

UTZ001>011-023>025-071700-

NORTHERN UTAH

CITY           SKY/WX    TMP DP  RH WIND       PRES   REMARKS
BRIGHAM CITY     N/A     20  12  70 CALM      30.24R
HILL AFB       MOSUNNY   17  10  73 NE8       30.20R WCI   7
LOGAN          MOSUNNY   16  11  80 CALM      30.23R
OGDEN          SUNNY     20  13  74 CALM      30.21R
SALT LAKE CITY PTSUNNY   22  14  71 N7        30.22R WCI  13
TOOELE VALLEY  MOSUNNY   21  18  86 CALM      30.24R
WENDOVER       MOSUNNY   21   7  53 N10       30.25R WCI  10
HEBER CITY     MOSUNNY   16  10  79 N3        30.13R
WEST JORDAN    MOSUNNY   19  18  95 W5        30.21R WCI  13

$$

UTZ011>015-024>027-071700-

CENTRAL/NORTHEAST UTAH

CITY           SKY/WX    TMP DP  RH WIND       PRES   REMARKS
PROVO AIRPORT  MOSUNNY   21  16  79 N6        30.22R WCI  14
MOAB/CANYONLAN SUNNY     28   8  43 CALM      30.13R
DELTA          PTSUNNY   21  16  79 NE3       30.20R
PRICE          SUNNY     22   7  52 NW8       30.09R WCI  12
RICHFIELD      MOSUNNY   21  14  73 NE7       30.18  WCI  13
ROOSEVELT      SUNNY     23   3  42 N3        30.14R
VERNAL         CLOUDY    19   1  45 CALM      30.12R

$$

UTZ013>016-019>022-027-071700-

SOUTHERN UTAH

CITY           SKY/WX    TMP DP  RH WIND       PRES   REMARKS
BRYCE CANYON   NOT AVBL
CEDAR CITY     SUNNY     18   9  68 CALM      30.11R
MILFORD        SUNNY     21  10  62 N15       30.17R WCI   8
ST GEORGE      SUNNY     36  12  38 CALM      30.16R
HANKSVILLE     SUNNY     27  12  54 CALM      30.18R
KANAB          SUNNY     30   9  40 N8        30.14R WCI  23
BLANDING       MOSUNNY   24  14  67 CALM      30.15R

$$

REGIONAL REPORTS     COLORADO/ARIZONA

CITY           SKY/WX    TMP DP  RH WIND       PRES   REMARKS
CRAIG, CO      CLOUDY    11   6  81 CALM      30.08R
GRAND JUNCTION MOSUNNY   19  17  92 SE5       30.12R WCI  12
RIFLE, CO      PTSUNNY   19  15  84 CALM      30.10R
MONTROSE, CO   MOSUNNY   18  13  80 CALM      30.12R
CORTEZ, CO     CLOUDY    26  11  52 N6        30.08R WCI  19
COLORADO CITY    N/A     28  19  69 E3        30.12R
PAGE, AZ       SUNNY     37   3  24 VRB6      30.09R WCI  32
GRAND CANYON   MOSUNNY   32  29  88 CALM      30.05R
KINGMAN, AZ    MOSUNNY   40  16  37 E9        30.07R WCI  34
FLAGSTAFF, AZ  CLOUDY    33  26  75 VRB6      30.05R WCI  28

$$

REGIONAL REPORTS    NEVADA/IDAHO/WYOMING

CITY           SKY/WX    TMP DP  RH WIND       PRES   REMARKS
LAS VEGAS, NV  PTSUNNY   46   8  21 N12       30.13R
ELY, NY        MOSUNNY    8   2  76 S5        30.14R WCI   0
ELKO, NV       PTCLDY    10   3  73 E6        30.21R WCI   0
POCATELLO, ID  LGT SNOW  17  13  84 CALM      30.26R FOG
BURLEY, ID     CLOUDY    18  15  88 W6        30.25R WCI  10
FORT BRIDGER,  CLOUDY     8   4  84 W5        30.10R WCI  -1
EVANSTON, WY   PTSUNNY    3  -3  76 CALM      30.07R
ROCK SPRINGS,  LGT SNOW   3  -2  79 NE9       30.08R WCI -12
KEMMERER, WY     N/A      5   0  78 NW5       30.05R WCI  -4

$$




USA.gov is the U.S. government's official web portal to all federal, state and local government web resources and services.